sat.trackr.live / text

‹ back to catalog

ONEWEB-0665

NORAD 55825 · 2023-029AF

PAYLOAD ACTIVE UNKNOWN

§ Identity

Operator
Country
UK
Launch date
2023-03-09
Launch site
AFETR
Launch vehicle
Mass (kg)
RCS (m²)

Purposes: comms

External: N2YO · Heavens-Above · Gunter

§ Orbital elements

Epoch: 2026-09-20T00:01:43.338720Z

Period
109.55 min
Inclination
87.8895°
Eccentricity
0.0001968
Mean motion
13.14502962 rev/d
Perigee alt
1,204.3 km
Apogee alt
1,207.3 km
Semi-major
7,583.9 km
B*
5.3414e-4
RAAN
270.8067°
Arg perigee
84.8167°
Mean anomaly
275.3188°
Rev number
17,186

§ Raw data

ONEWEB-06651 55825U 23029AF  26263.00119605  .00000211  00000+0  53414-3 0  99952 55825  87.8895 270.8067 0001968  84.8167 275.3188 13.14502962171860

JSON: /api/v1/satellites/55825 · /tle

For live sub-satellite position, see the globe view (requires WebGL).

§ Visibility from observer

Set your observer location to see the next 7 days of passes ≥ 10°. The values pass through the URL so the page stays shareable.

No JS? Fill the form by hand. The geolocation button needs JavaScript.